• In Uzbekistan
  • List of Countries
  • For 7 days
  • Water Temperature
  • Satellite Maps
  • Weather Map
  • Weather Widgets
  • user-avatar
    Login

    Hourly Weather Mauritius

    Today, 3 December, Saturday

    Time Temperature Precipitation Wind Pressure Humidity
    00:00 +23°C° 0.1 mm 5 mps 724 mmHg 81%
    01:00 +23°C° 0.1 mm 5 mps 724 mmHg 81%
    02:00 +23°C° 0.2 mm 5 mps 723 mmHg 81%
    03:00 +23°C° 0.2 mm 5 mps 723 mmHg 81%
    04:00 +23°C° 0 mm 6 mps 723 mmHg 80%
    05:00 +23°C° 0.2 mm 6 mps 723 mmHg 77%
    06:00 +24°C° 0.2 mm 6 mps 723 mmHg 75%
    07:00 +24°C° 0.2 mm 6 mps 724 mmHg 73%
    08:00 +26°C° 0.1 mm 6 mps 724 mmHg 69%
    09:00 +27°C° 0.1 mm 7 mps 724 mmHg 65%
    10:00 +28°C° 0 mm 7 mps 724 mmHg 62%
    11:00 +28°C° 0.1 mm 7 mps 723 mmHg 62%
    12:00 +28°C° 0.1 mm 7 mps 723 mmHg 61%
    13:00 +28°C° 0.1 mm 7 mps 723 mmHg 61%
    14:00 +28°C° 0.2 mm 7 mps 723 mmHg 63%
    15:00 +28°C° 0.2 mm 7 mps 723 mmHg 66%
    16:00 +27°C° 0 mm 6 mps 723 mmHg 68%
    17:00 +26°C° 0.3 mm 6 mps 723 mmHg 71%
    18:00 +26°C° 0.3 mm 5 mps 723 mmHg 75%
    19:00 +25°C° 0.3 mm 5 mps 723 mmHg 78%
    20:00 +25°C° 0 mm 5 mps 723 mmHg 79%
    21:00 +25°C° 0 mm 5 mps 723 mmHg 80%
    22:00 +25°C° 0 mm 5 mps 724 mmHg 81%
    23:00 +25°C° 1 mm 5 mps 724 mmHg 82%

    Tomorrow, 4 December, Sunday

    Time Temperature Precipitation Wind Pressure Humidity
    00:00 +23°C° 1 mm 5 mps 723 mmHg 83%
    01:00 +23°C° 1 mm 5 mps 723 mmHg 83%
    02:00 +23°C° 1.5 mm 5 mps 723 mmHg 83%
    03:00 +23°C° 1.5 mm 5 mps 723 mmHg 82%
    04:00 +23°C° 1.5 mm 4 mps 723 mmHg 82%
    05:00 +23°C° 1 mm 4 mps 723 mmHg 80%
    06:00 +25°C° 1 mm 4 mps 723 mmHg 78%
    07:00 +25°C° 1 mm 4 mps 723 mmHg 76%
    08:00 +26°C° 0.7 mm 3 mps 724 mmHg 74%
    09:00 +26°C° 0.7 mm 3 mps 724 mmHg 72%
    10:00 +27°C° 0.7 mm 3 mps 724 mmHg 69%
    11:00 +27°C° 0.6 mm 3 mps 724 mmHg 69%
    12:00 +27°C° 0.6 mm 3 mps 724 mmHg 68%
    13:00 +27°C° 0.6 mm 3 mps 723 mmHg 68%
    14:00 +27°C° 1 mm 3 mps 723 mmHg 70%
    15:00 +26°C° 1 mm 3 mps 723 mmHg 71%
    16:00 +26°C° 1 mm 3 mps 723 mmHg 73%
    17:00 +25°C° 0.4 mm 3 mps 723 mmHg 76%
    18:00 +25°C° 0.4 mm 3 mps 723 mmHg 78%
    19:00 +24°C° 0.4 mm 3 mps 723 mmHg 81%
    20:00 +24°C° 0.1 mm 3 mps 723 mmHg 82%
    21:00 +24°C° 0.1 mm 3 mps 724 mmHg 82%
    22:00 +24°C° 0.1 mm 3 mps 724 mmHg 83%
    23:00 +23°C° 0.1 mm 4 mps 724 mmHg 83%

    Day after tomorrow, 5 December, Monday

    Time Temperature Precipitation Wind Pressure Humidity
    00:00 +23°C° 0.1 mm 4 mps 724 mmHg 83%
    01:00 +23°C° 0.1 mm 4 mps 723 mmHg 83%
    02:00 +22°C° 0.2 mm 4 mps 723 mmHg 84%
    03:00 +22°C° 0.2 mm 5 mps 723 mmHg 84%
    04:00 +22°C° 0.2 mm 5 mps 722 mmHg 84%
    05:00 +22°C° 0.3 mm 5 mps 723 mmHg 84%
    06:00 +22°C° 0.3 mm 5 mps 723 mmHg 83%
    07:00 +23°C° 0.3 mm 5 mps 723 mmHg 82%
    08:00 +23°C° 0.1 mm 5 mps 723 mmHg 81%
    09:00 +23°C° 0.1 mm 5 mps 724 mmHg 79%
    10:00 +25°C° 0.1 mm 5 mps 724 mmHg 77%
    11:00 +25°C° 0.2 mm 5 mps 724 mmHg 78%
    12:00 +25°C° 0.2 mm 5 mps 723 mmHg 79%
    13:00 +23°C° 0.2 mm 5 mps 723 mmHg 80%
    14:00 +23°C° 0.2 mm 5 mps 723 mmHg 80%
    15:00 +23°C° 0.2 mm 5 mps 723 mmHg 80%
    16:00 +23°C° 0.2 mm 6 mps 722 mmHg 81%
    17:00 +23°C° 0.2 mm 6 mps 723 mmHg 80%
    18:00 +23°C° 0.2 mm 6 mps 723 mmHg 80%
    19:00 +22°C° 0.2 mm 6 mps 723 mmHg 80%
    20:00 +22°C° 0.1 mm 7 mps 723 mmHg 80%
    21:00 +22°C° 0.1 mm 7 mps 724 mmHg 79%
    22:00 +22°C° 0.1 mm 7 mps 724 mmHg 79%
    23:00 +22°C° 0 mm 7 mps 724 mmHg 80%

    6 December, Tuesday

    Time Temperature Precipitation Wind Pressure Humidity
    00:00 +22°C° 0 mm 6 mps 723 mmHg 80%
    01:00 +22°C° 0 mm 6 mps 723 mmHg 81%
    02:00 +22°C° 0.1 mm 6 mps 723 mmHg 81%
    03:00 +22°C° 0.1 mm 6 mps 723 mmHg 82%
    04:00 +22°C° 0.1 mm 6 mps 722 mmHg 82%
    05:00 +22°C° 0.1 mm 6 mps 723 mmHg 81%
    06:00 +22°C° 0.1 mm 6 mps 723 mmHg 79%
    07:00 +23°C° 0.1 mm 6 mps 724 mmHg 78%
    08:00 +23°C° 0.1 mm 6 mps 724 mmHg 77%
    09:00 +23°C° 0.1 mm 6 mps 724 mmHg 75%
    10:00 +24°C° 0.1 mm 6 mps 724 mmHg 73%
    11:00 +24°C° 0.2 mm 6 mps 724 mmHg 74%
    12:00 +24°C° 0.2 mm 6 mps 724 mmHg 74%
    13:00 +24°C° 0.2 mm 6 mps 723 mmHg 75%
    14:00 +24°C° 0.5 mm 6 mps 723 mmHg 76%
    15:00 +24°C° 0.5 mm 6 mps 723 mmHg 76%
    16:00 +24°C° 0.5 mm 6 mps 723 mmHg 77%
    17:00 +23°C° 0.9 mm 6 mps 723 mmHg 78%
    18:00 +23°C° 0.9 mm 6 mps 723 mmHg 79%
    19:00 +23°C° 0.9 mm 6 mps 724 mmHg 80%
    20:00 +23°C° 0.7 mm 7 mps 724 mmHg 80%
    21:00 +23°C° 0.7 mm 7 mps 725 mmHg 80%
    22:00 +23°C° 0.7 mm 7 mps 725 mmHg 80%
    23:00 +23°C° 0.5 mm 7 mps 725 mmHg 81%

    7 December, Wednesday

    Time Temperature Precipitation Wind Pressure Humidity
    00:00 +22°C° 0.5 mm 6 mps 724 mmHg 82%
    01:00 +22°C° 0.5 mm 6 mps 724 mmHg 83%
    02:00 +22°C° 0.6 mm 6 mps 724 mmHg 83%
    03:00 +22°C° 0.6 mm 6 mps 723 mmHg 84%
    04:00 +22°C° 0.6 mm 6 mps 723 mmHg 85%
    05:00 +23°C° 0.6 mm 6 mps 724 mmHg 84%
    06:00 +23°C° 0.6 mm 6 mps 724 mmHg 82%
    07:00 +23°C° 0.6 mm 6 mps 725 mmHg 81%
    08:00 +24°C° 0.5 mm 6 mps 725 mmHg 79%
    09:00 +24°C° 0.5 mm 6 mps 725 mmHg 76%
    10:00 +26°C° 0.5 mm 6 mps 725 mmHg 73%
    11:00 +26°C° 0.9 mm 6 mps 725 mmHg 73%
    12:00 +26°C° 0.9 mm 6 mps 724 mmHg 73%
    13:00 +27°C° 0.9 mm 5 mps 724 mmHg 72%
    14:00 +26°C° 0.9 mm 6 mps 724 mmHg 74%
    15:00 +26°C° 0.9 mm 6 mps 724 mmHg 75%
    16:00 +26°C° 0.9 mm 6 mps 724 mmHg 76%
    17:00 +24°C° 0.5 mm 6 mps 724 mmHg 79%
    18:00 +24°C° 0.5 mm 6 mps 724 mmHg 81%
    19:00 +23°C° 0.5 mm 6 mps 725 mmHg 84%
    20:00 +23°C° 0.4 mm 6 mps 725 mmHg 84%
    21:00 +23°C° 0.4 mm 6 mps 725 mmHg 85%
    22:00 +23°C° 0.4 mm 6 mps 726 mmHg 86%
    23:00 +23°C° 0.4 mm 6 mps 725 mmHg 85%

    8 December, Thursday

    Time Temperature Precipitation Wind Pressure Humidity
    00:00 +23°C° 0.4 mm 6 mps 725 mmHg 85%
    01:00 +23°C° 0.4 mm 6 mps 724 mmHg 85%
    02:00 +23°C° 0.3 mm 6 mps 724 mmHg 85%
    03:00 +23°C° 0.3 mm 6 mps 724 mmHg 85%
    04:00 +23°C° 0.3 mm 6 mps 724 mmHg 84%
    05:00 +23°C° 0.3 mm 6 mps 724 mmHg 84%
    06:00 +23°C° 0.3 mm 6 mps 725 mmHg 84%
    07:00 +23°C° 0.3 mm 6 mps 725 mmHg 83%
    08:00 +24°C° 0.4 mm 6 mps 726 mmHg 81%
    09:00 +24°C° 0.4 mm 6 mps 726 mmHg 78%
    10:00 +26°C° 0.4 mm 7 mps 726 mmHg 75%
    11:00 +26°C° 0.6 mm 6 mps 726 mmHg 75%
    12:00 +26°C° 0.6 mm 6 mps 725 mmHg 75%
    13:00 +26°C° 0.6 mm 6 mps 725 mmHg 74%
    14:00 +26°C° 0.5 mm 6 mps 725 mmHg 75%
    15:00 +26°C° 0.5 mm 6 mps 724 mmHg 76%
    16:00 +26°C° 0.5 mm 6 mps 724 mmHg 76%
    17:00 +24°C° 0.4 mm 6 mps 725 mmHg 79%
    18:00 +24°C° 0.4 mm 6 mps 725 mmHg 81%
    19:00 +23°C° 0.4 mm 6 mps 725 mmHg 84%
    20:00 +23°C° 0.2 mm 6 mps 725 mmHg 83%
    21:00 +23°C° 0.2 mm 6 mps 726 mmHg 82%
    22:00 +23°C° 0.2 mm 6 mps 726 mmHg 82%
    23:00 +23°C° 0 mm 5 mps 725 mmHg 81%
    Show more